Location: *
(46.3500°N, 10.9000°E)
Time: 18:30:12
(UTC+00:00)

SAR-Lupe-2 - Pass Details

Date: 09 April 2020
Orbit: 481 x 485 km, 98.1° (Epoch: 20 May)

Event Time Altitude Azimuth Distance (km) Brightness Sun altitude
Rises 20:15:37 0° 10° (N) 2,555 7.6 -22.2°
Reaches altitude 10° 20:17:42 10° 8° (N) 1,670 6.7 -22.5°
Maximum altitude 20:21:15 65° 287° (WNW) 536 3.9 -23.0°
Enters shadow 20:21:21 64° 276° (W) 538 3.8 -23.0°
